This is the latest recevied weather packets stored in our database for station/object VK5TRM-14. If no packets are shown the sender has not sent any weather packets the latest 10 day(s).
| Time | Temp. | Humidity | Pressure | Rain* | Wind** | Luminosity | Snow |
|---|---|---|---|---|---|---|---|
| 1778070605 | 13.33° C | 77% | 1024 hPa | 0 mm | - | - | - |
| 1778069705 | 13.33° C | 77% | 1024 hPa | 0 mm | - | - | - |
| 1778068805 | 13.89° C | 81% | 1023.8 hPa | 0 mm | - | - | - |
| 1778067905 | 13.89° C | 81% | 1023.8 hPa | 0 mm | - | - | - |
| 1778067005 | 13.89° C | 82% | 1023.4 hPa | 0 mm | - | - | - |
| 1778066105 | 13.89° C | 82% | 1023.4 hPa | 0 mm | - | - | - |
| 1778065205 | 13.89° C | 83% | 1023 hPa | 0 mm | - | - | - |
| 1778064305 | 13.89° C | 83% | 1023 hPa | 0 mm | - | - | - |
| 1778063405 | 13.33° C | 82% | 1022.6 hPa | 0 mm | - | - | - |
| 1778062505 | 13.33° C | 82% | 1022.6 hPa | 0 mm | - | - | - |
| 1778061605 | 13.89° C | 80% | 1022.2 hPa | 0 mm | - | - | - |
| 1778060706 | 13.89° C | 80% | 1022.2 hPa | 0 mm | - | - | - |
| 1778059805 | 15.56° C | 77% | 1022.1 hPa | 0 mm | - | - | - |
| 1778058905 | 15.56° C | 77% | 1022.1 hPa | 0 mm | - | - | - |
| 1778058005 | 15.56° C | 77% | 1021.8 hPa | 0 mm | - | - | - |
| 1778057105 | 15.56° C | 77% | 1021.8 hPa | 0 mm | - | - | - |
| 1778056206 | 15.56° C | 79% | 1021.5 hPa | 0 mm | - | - | - |
| 1778055305 | 15.56° C | 79% | 1021.5 hPa | 0 mm | - | - | - |
| 1778054404 | 18.33° C | 59% | 1020.9 hPa | 0 mm | - | - | - |
| 1778053504 | 18.33° C | 59% | 1020.9 hPa | 0 mm | - | - | - |
| 1778052605 | 19.44° C | 53% | 1020.5 hPa | 0 mm | - | - | - |
| 1778051705 | 19.44° C | 53% | 1020.5 hPa | 0 mm | - | - | - |
| 1778050805 | 19.44° C | 50% | 1020.4 hPa | 0 mm | - | - | - |
| 1778049905 | 19.44° C | 50% | 1020.4 hPa | 0 mm | - | - | - |
| 1778049005 | 20° C | 49% | 1020.6 hPa | 0 mm | - | - | - |
* Rain since midnight (hover to see other rain measurements)
** Current wind speed in m/s (hover to see current wind gust speed)